sat.trackr.live / text

‹ back to catalog

STARLINK-32766

NORAD 62574 · 2025-006W

PAYLOAD ACTIVE UNKNOWN

§ Identity

Operator
Country
US
Launch date
2025-01-10
Launch site
AFETR
Launch vehicle
Mass (kg)
RCS (m²)

Purposes: comms

External: N2YO · Heavens-Above · Gunter

§ Orbital elements

Epoch: 2026-05-25T04:43:45.477696Z

Period
94.27 min
Inclination
42.9998°
Eccentricity
0.0001040
Mean motion
15.27576426 rev/d
Perigee alt
482.3 km
Apogee alt
483.8 km
Semi-major
6,861.2 km
B*
4.8515e-4
RAAN
220.4849°
Arg perigee
277.9795°
Mean anomaly
82.0939°
Rev number
7,656

§ Raw data

STARLINK-327661 62574U 25006W   26145.19705414  .00013110  00000+0  48515-3 0  99972 62574  42.9998 220.4849 0001040 277.9795  82.0939 15.27576426 76567

JSON: /api/v1/satellites/62574 · /tle

For live sub-satellite position, see the globe view (requires WebGL).

§ Visibility from observer

Set your observer location to see the next 7 days of passes ≥ 10°. The values pass through the URL so the page stays shareable.

No JS? Fill the form by hand. The geolocation button needs JavaScript.